sat.trackr.live / text

‹ back to catalog

STARLINK-5532

NORAD 55760 · 2023-028V

PAYLOAD ACTIVE UNKNOWN

§ Identity

Operator
Country
US
Launch date
2023-03-03
Launch site
AFWTR
Launch vehicle
Mass (kg)
RCS (m²)

Purposes: comms

External: N2YO · Heavens-Above · Gunter

§ Orbital elements

Epoch: 2026-09-20T22:00:03.000096Z

Period
95.90 min
Inclination
70.0002°
Eccentricity
0.0002403
Mean motion
15.01571664 rev/d
Perigee alt
560.4 km
Apogee alt
563.7 km
Semi-major
6,940.2 km
B*
6.7049e-3
RAAN
112.0004°
Arg perigee
280.2555°
Mean anomaly
267.7253°
Rev number
576

§ Raw data

STARLINK-55321 55760U 23028V   26263.91670139  .00088056  00000+0  67049-2 0  99972 55760  70.0002 112.0004 0002403 280.2555 267.7253 15.01571664  5764

JSON: /api/v1/satellites/55760 · /tle

For live sub-satellite position, see the globe view (requires WebGL).

§ Visibility from observer

Set your observer location to see the next 7 days of passes ≥ 10°. The values pass through the URL so the page stays shareable.

No JS? Fill the form by hand. The geolocation button needs JavaScript.